Regional Weather Roundup
Issued by NWS

Home | Current Version | Previous Version | Graphics & Text | Print | Product List | Glossary On
Versions: 1 2 3 4 5 6 7 8 9 10 11 12 13 14 15 16 17 18 19 20 21 22 23 24 25 26 27 28 29 30 31 32 33 34 35 36 37 38 39 40 41 42 43 44 45 46 47 48 49 50
000
ASUS43 KDMX 170607
RWRIA

WEATHER ROUNDUP FOR IOWA
NATIONAL WEATHER SERVICE DES MOINES IA
100 AM CDT FRI APR 17 2015

NOTE: "FAIR" INDICATES FEW OR NO CLOUDS BELOW 12,000 FEET WITH NO
SIGNIFICANT WEATHER AND/OR OBSTRUCTIONS TO VISIBILITY.

* - THESE STATIONS ARE NOT NWS STATIONS...THUS NOT UNDER NWS
QUALITY CONTROL.  THEY ALSO DO NOT REPORT WEATHER SUCH
AS PRECIPITATION OR FOG.

IAZ001>003-012>014-020>022-031>034-043>046-170700-
   NORTHWEST IOWA

CITY           SKY/WX    TMP DP  RH WIND       PRES   REMARKS
CARROLL *      MOCLDY    54  48  82 CALM      30.09R
CHEROKEE *       N/A     50  48  92 CALM      30.10R
DENISON *      PTCLDY    54  54 100 CALM      30.08R
LE MARS *      CLEAR     50  48  93 CALM      30.11R
ORANGE CITY *  CLEAR     52  48  87 CALM      30.10R
SHELDON *      CLEAR     50  48  93 NW5       30.09R
SIOUX CITY       N/A     52  45  77 NW5       30.09R
6HR MIN TEMP:  52; 6HR MAX TEMP:  72;

SPENCER          N/A     48  44  86 SW5       30.09R
6HR MIN TEMP:  47; 6HR MAX TEMP:  70;

STORM LAKE *   CLEAR     61  48  63 CALM      30.10R
$$

IAZ055>058-069>071-079>083-090>094-170700-
   SOUTHWEST IOWA

CITY           SKY/WX    TMP DP  RH WIND       PRES   REMARKS
ATLANTIC *     CLEAR     52  52 100 CALM      30.10S
AUDUBON *      CLEAR     50  46  87 CALM      30.11R
CLARINDA *     CLEAR     54  52  94 CALM      30.11S
COUNCIL BLFS * CLEAR     59  54  82 SE6       30.09F
CRESTON *      CLEAR     55  50  82 SE3       30.11R
HARLAN  *      CLEAR     52  52 100 CALM      30.13R FOG
LAMONI           N/A     58  51  78 E5        30.10R
6HR MIN TEMP:  58; 6HR MAX TEMP:  72;

RED OAK *      CLEAR     54  52  94 NE5       30.10S
SHENANDOAH *   PTCLDY    57  52  82 NE5       30.10S
$$

IAZ047>049-059>061-072>074-084-170700-
   CENTRAL IOWA

CITY           SKY/WX    TMP DP  RH WIND       PRES   REMARKS
AMES             N/A     52  47  83 CALM      30.08R
6HR MIN TEMP:  51; 6HR MAX TEMP:  71;

ANKENY *       CLEAR     52  48  87 CALM      30.10R
CHARITON *     CLOUDY    57  54  88 S3        30.10R
DES MOINES       N/A     59  50  72 S3        30.10R
6HR MIN TEMP:  59; 6HR MAX TEMP:  71;

GRINNELL*        N/A     57  50  77 W3        30.09R
KNOXVILLE *    PTCLDY    57  50  77 SW5       30.09R
MARSHALLTOWN     N/A     55  49  80 CALM      30.07S
6HR MIN TEMP:  55; 6HR MAX TEMP:  69;

PELLA *          N/A     57  55  91 CALM      30.10R
PERRY *          N/A     54  48  82 S3        30.09R
$$

IAZ004>006-015-016-023>025-035-036-170700-
   NORTH CENTRAL IOWA

CITY           SKY/WX    TMP DP  RH WIND       PRES   REMARKS
ALGONA *       CLEAR     57  48  72 W3        30.08R
CLARION *      CLEAR     52  46  82 CALM      30.08R
ESTHERVILLE      N/A     52  44  74 W7        30.07R
6HR MIN TEMP:  50; 6HR MAX TEMP:  69;

FORT DODGE *     N/A     52  46  82 S3        30.09R
MASON CITY       N/A     51  45  79 CALM      30.08S
6HR MIN TEMP:  49; 6HR MAX TEMP:  70;

FOREST CITY *  CLEAR     46  45  93 CALM      30.07R
IOWA FALLS *   MOCLDY    54  46  76 CALM      30.09R
$$

IAZ007>011-017>019-026>030-037>042-050>054-066-170700-
   NORTHEAST IOWA

CITY           SKY/WX    TMP DP  RH WIND       PRES   REMARKS
CEDAR RAPIDS     N/A     56  47  71 CALM      30.07S
6HR MIN TEMP:  53; 6HR MAX TEMP:  71;

CHARLES CITY * CLEAR     57  46  67 CALM      30.07F
CLINTON *        N/A     52  39  62 SE3       30.09F
DECORAH *      CLOUDY    57  45  62 CALM      30.05F
DUBUQUE        CLOUDY    55  42  61 SW3       30.07F
6HR MIN TEMP:  51; 6HR MAX TEMP:  69;

MONTICELLO *   CLOUDY    50  48  93 S3        30.07S
OELWEIN *      MOCLDY    61  46  59 E3        30.08R
WATERLOO         N/A     51  46  83 CALM      30.06S
6HR MIN TEMP:  51; 6HR MAX TEMP:  71;

$$

IAZ064-065-067-068-078-170700-
   EAST CENTRAL IOWA

CITY           SKY/WX    TMP DP  RH WIND       PRES   REMARKS
DAVENPORT        N/A     56  42  59 S3        30.08F
6HR MIN TEMP:  54; 6HR MAX TEMP:  72;

IOWA CITY        N/A     53  46  77 CALM      30.09R
6HR MIN TEMP:  52; 6HR MAX TEMP:  72;

MT. PLEASANT *   N/A     57  48  73 CALM      30.10R
MUSCATINE *    PTCLDY    55  46  71 CALM      30.09R
QUAD CITIES      N/A     51  44  77 CALM      30.07S
6HR MIN TEMP:  50; 6HR MAX TEMP:  72;

$$

IAZ062-063-075>077-085>089-095>099-170700-
   SOUTHEAST IOWA

CITY           SKY/WX    TMP DP  RH WIND       PRES   REMARKS
BURLINGTON       N/A     55  48  77 S6        30.08R
6HR MIN TEMP:  55; 6HR MAX TEMP:  73;

FAIRFIELD *    MOCLDY    55  48  76 CALM      30.10R
FORT MADISON * CLEAR     57  48  72 CALM      30.10R
KEOKUK *       PTCLDY    59  52  77 CALM      30.08S
OSKALOOSA *      N/A     55  49  78 CALM      30.10R
CENTERVILLE *  CLOUDY    55  54  94 CALM      30.12R
OTTUMWA          N/A     54  49  83 CALM      30.09R
6HR MIN TEMP:  51; 6HR MAX TEMP:  69;

WASHINGTON *   CLEAR     57  52  82 SW3       30.09R
$$

ABBREVIATIONS USED IN REMARKS
   TC - TEMPERATURES IN CELSIUS
  WCI - WIND CHILL INDEX
   HX - HEAT INDEX
  VSB - VISIBILITY
$$




USA.gov is the U.S. government's official web portal to all federal, state and local government web resources and services.